Weather History for Chicago Midway, IL

Change the Weather History Date:

Saturday, January 19, 2013

  Actual Average Record
Temperature  
Mean Temperature 38 °F 25 °F  
Max Temperature 48 °F 31 °F 57 °F (1933)
Min Temperature 28 °F 18 °F -21 °F (1985)
Degree Days  
Heating Degree Days 27 40  
Month to date heating degree days 658 759  
Since 1 July heating degree days 2621 3010  
Cooling Degree Days 0 0  
Month to date cooling degree days 0 0  
Year to date cooling degree days 0 0  
Moisture  
Dew Point 28 °F    
Average Humidity 58    
Maximum Humidity 68    
Minimum Humidity 45    
Precipitation  
Precipitation 0.00 in 0.07 in 1.09 in (1952)
Month to date precipitation 0.84 1.37  
Year to date precipitation 0.84 1.37  
Sea Level Pressure  
Sea Level Pressure 29.86 in    
Wind  
Wind Speed 17 mph (SW)    
Max Wind Speed 37 mph    
Max Gust Speed 51 mph    
Visibility 10 miles    
Events      
T = Trace of Precipitation, MM = Missing Value Source: NWS Daily Summary

Daily Weather History Graph

Daily Weather History Graph

Search for Another Location

Airport:

Trip Planner

Search our weather history database for the weather conditions in past years. The results will help you decide how hot, cold, wet, or windy it might be!

Date:

Astronomy

Jan. 19, 2013 Rise Set
Actual Time 7:13 AM CST 4:50 PM CST
Civil Twilight 6:43 AM CST 5:20 PM CST
Nautical Twilight 6:09 AM CST 5:54 PM CST
Astronomical Twilight 5:36 AM CST 6:28 PM CST
Moon 11:17 AM CST (1/19) 12:46 AM CST (1/19)
Length of Visible Light 10h 37m
Length of Day
9h 36m
First Quarter, 57% of the Moon is Illuminated
Jan 19
First Quarter
Jan 26
Full
Feb 3
Last Quarter
Feb 10
New
Feb 17
First Quarter

Hourly Weather History & Observations

Time (CST) Temp. Windchill Dew Point Humidity Pressure Visibility Wind Dir Wind Speed Gust Speed Precip Events Conditions
12:51 AM 39.2 °F 30.8 °F 26.6 °F 61% 29.93 in 10.0 mi SW 15.0 mph 26.5 mph N/A   Clear
1:51 AM 39.0 °F 30.6 °F 26.1 °F 60% 29.96 in 10.0 mi SW 15.0 mph 23.0 mph N/A   Clear
2:51 AM 39.0 °F 30.6 °F 26.1 °F 60% 29.96 in 10.0 mi SW 15.0 mph 25.3 mph N/A   Clear
3:51 AM 39.0 °F 31.0 °F 27.0 °F 62% 29.95 in 10.0 mi SW 13.8 mph 21.9 mph N/A   Clear
4:51 AM 37.9 °F 30.5 °F 27.0 °F 65% 29.94 in 10.0 mi SSW 11.5 mph - N/A   Overcast
5:51 AM 37.9 °F 28.9 °F 27.0 °F 65% 29.93 in 10.0 mi SSW 16.1 mph - N/A   Overcast
6:51 AM 37.9 °F 28.5 °F 27.0 °F 65% 29.93 in 10.0 mi SW 17.3 mph 23.0 mph N/A   Mostly Cloudy
7:51 AM 39.0 °F 31.8 °F 27.0 °F 62% 29.91 in 10.0 mi SW 11.5 mph - N/A   Mostly Cloudy
8:51 AM 39.0 °F 31.4 °F 28.0 °F 65% 29.92 in 10.0 mi SSW 12.7 mph - N/A   Mostly Cloudy
9:51 AM 41.0 °F 32.5 °F 28.0 °F 60% 29.91 in 10.0 mi SSW 17.3 mph 23.0 mph N/A   Mostly Cloudy
10:51 AM 44.1 °F 36.8 °F 28.9 °F 55% 29.88 in 10.0 mi SW 16.1 mph 24.2 mph N/A   Mostly Cloudy
11:51 AM 46.4 °F 39.0 °F 30.2 °F 53% 29.81 in 10.0 mi SW 19.6 mph 26.5 mph N/A   Mostly Cloudy
12:51 PM 46.9 °F - 30.9 °F 54% 29.80 in 10.0 mi WSW 12.7 mph 21.9 mph N/A   Mostly Cloudy
1:51 PM 46.0 °F 39.3 °F 32.0 °F 58% 29.78 in 10.0 mi SW 16.1 mph 25.3 mph N/A   Mostly Cloudy
2:51 PM 46.0 °F 39.9 °F 33.1 °F 61% 29.77 in 10.0 mi SSW 13.8 mph - N/A   Mostly Cloudy
3:51 PM 48.0 °F - 33.1 °F 56% 29.77 in 10.0 mi WSW 15.0 mph 21.9 mph N/A   Mostly Cloudy
4:51 PM 46.9 °F - 33.1 °F 59% 29.77 in 10.0 mi SW 17.3 mph 27.6 mph N/A   Partly Cloudy
5:51 PM 45.0 °F 37.9 °F 34.0 °F 65% 29.79 in 10.0 mi WSW 16.1 mph - N/A   Partly Cloudy
6:51 PM 44.1 °F 36.5 °F 34.0 °F 68% 29.80 in 10.0 mi WSW 17.3 mph 24.2 mph N/A   Partly Cloudy
7:51 PM 44.1 °F 35.9 °F 32.0 °F 63% 29.79 in 10.0 mi WSW 19.6 mph 28.8 mph N/A   Clear
8:51 PM 43.0 °F 34.5 °F 30.0 °F 60% 29.82 in 10.0 mi West 19.6 mph 34.5 mph N/A   Partly Cloudy
9:51 PM 41.0 °F 30.2 °F 27.0 °F 57% 29.83 in 10.0 mi West 27.6 mph 40.3 mph N/A   Partly Cloudy
10:51 PM 36.0 °F 24.7 °F 18.0 °F 48% 29.87 in 10.0 mi West 21.9 mph 39.1 mph N/A   Partly Cloudy
11:51 PM 28.0 °F 13.6 °F 9.0 °F 45% 29.93 in 10.0 mi WNW 24.2 mph 35.7 mph N/A   Clear